Abilene, TX

11:37 PM CDT on March 22, 2017 (GMT -0500)
Abilene Regional

Weather History for KABI - August, 2012

Change the Weather History Date:

Tuesday, August 7, 2012

  Actual Average Record
Temperature  
Mean Temperature 90 °F 84 °F  
Max Temperature 102 °F 95 °F 106 °F (2003)
Min Temperature 78 °F 73 °F 62 °F (1997)
Degree Days  
Heating Degree Days 0 0  
Month to date heating degree days 0 0  
Since 1 June heating degree days 0 1  
Since 1 July heating degree days 0 0  
Cooling Degree Days 25 19  
Month to date cooling degree days 185 133  
Year to date cooling degree days 2030 1526  
Since 1 June cooling degree days 1365 1129  
Growing Degree Days 41 (Base 50)    
Moisture  
Dew Point 60 °F    
Average Humidity 42    
Maximum Humidity 62    
Minimum Humidity 21    
Precipitation  
Precipitation 0.07 in 0.09 in 1.13 in (1966)
Month to date precipitation 0.07 0.55  
Year to date precipitation 12.53 14.92  
Sea Level Pressure  
Sea Level Pressure 29.91 in    
Wind  
Wind Speed 8 mph (South)    
Max Wind Speed 17 mph    
Max Gust Speed 22 mph    
Visibility 10 miles    
Events      
T = Trace of Precipitation, MM = Missing Value Source: NWS Daily Summary

Daily Weather History Graph

Daily Weather History Graph

Search for Another Location

Airport or City:

Trip Planner

Search our weather history database for the weather conditions in past years. The results will help you decide how hot, cold, wet, or windy it might be!

Date:

Astronomy

Aug. 07, 2012 Rise Set
Actual Time 6:57 AM CDT 8:30 PM CDT
Civil Twilight 6:31 AM CDT 8:56 PM CDT
Nautical Twilight 5:59 AM CDT 9:28 PM CDT
Astronomical Twilight 5:26 AM CDT 10:01 PM CDT
Moon 11:37 PM CDT (8/7) 12:22 PM CDT (8/7)
Length of Visible Light 14h 25m
Length of Day
13h 33m
Waning Gibbous, 69% of the Moon is Illuminated
Aug 7
Waning Gibbous
Aug 9
Last Quarter
Aug 17
New
Aug 24
First Quarter
Aug 31
Full

Hourly Weather History & Observations

Time (CDT) Temp. Heat Index Dew Point Humidity Pressure Visibility Wind Dir Wind Speed Gust Speed Precip Events Conditions
12:52 AM 88.0 °F 87.6 °F 60.1 °F 39% 29.92 in 10.0 mi South 9.2 mph - N/A   Clear
1:52 AM 87.1 °F 86.7 °F 60.1 °F 40% 29.92 in 10.0 mi South 10.4 mph - N/A   Clear
2:52 AM 86.0 °F 85.7 °F 60.1 °F 41% 29.91 in 10.0 mi South 11.5 mph - N/A   Clear
3:52 AM 86.0 °F 86.1 °F 61.0 °F 43% 29.91 in 10.0 mi South 9.2 mph - N/A   Clear
4:52 AM 84.0 °F 84.0 °F 60.1 °F 44% 29.91 in 10.0 mi SSW 10.4 mph - N/A   Clear
5:52 AM 82.9 °F 83.2 °F 60.1 °F 46% 29.91 in 10.0 mi SSW 9.2 mph - N/A   Clear
6:52 AM 80.1 °F 80.9 °F 60.1 °F 50% 29.93 in 10.0 mi SSW 4.6 mph - N/A   Clear
7:52 AM 81.0 °F 81.6 °F 60.1 °F 49% 29.93 in 10.0 mi South 6.9 mph - N/A   Clear
8:52 AM 84.0 °F 84.4 °F 61.0 °F 46% 29.98 in 10.0 mi NNW 3.5 mph - N/A   Mostly Cloudy
9:52 AM 84.0 °F 84.4 °F 61.0 °F 46% 29.97 in 10.0 mi South 5.8 mph - N/A   Scattered Clouds
10:52 AM 81.0 °F 83.3 °F 66.9 °F 62% 30.00 in 10.0 mi North 3.5 mph - 0.07 in   Overcast
11:52 AM 84.9 °F 87.6 °F 66.9 °F 55% 29.97 in 10.0 mi West 3.5 mph - N/A   Partly Cloudy
12:52 PM 93.9 °F 96.1 °F 64.9 °F 38% 29.96 in 10.0 mi NW 3.5 mph - N/A   Clear
1:52 PM 99.0 °F 98.1 °F 57.9 °F 25% 29.93 in 10.0 mi Variable 5.8 mph - N/A   Clear
2:52 PM 99.0 °F 98.1 °F 57.9 °F 25% 29.91 in 10.0 mi NE 5.8 mph - N/A   Clear
3:52 PM 98.1 °F 96.8 °F 57.0 °F 25% 29.88 in 10.0 mi Variable 3.5 mph - N/A   Clear
4:52 PM 100.0 °F 98.3 °F 55.0 °F 22% 29.86 in 10.0 mi East 5.8 mph - N/A   Clear
5:52 PM 100.9 °F 99.1 °F 54.0 °F 21% 29.84 in 10.0 mi SSE 12.7 mph 18.4 mph N/A   Clear
6:52 PM 100.0 °F 98.3 °F 55.0 °F 22% 29.83 in 10.0 mi South 8.1 mph - N/A   Clear
7:52 PM 97.0 °F 95.3 °F 55.9 °F 25% 29.83 in 10.0 mi SE 8.1 mph - N/A   Clear
8:52 PM 93.0 °F 91.4 °F 55.9 °F 29% 29.84 in 10.0 mi ESE 12.7 mph - N/A   Clear
9:52 PM 90.0 °F 90.0 °F 61.0 °F 38% 29.86 in 10.0 mi SE 11.5 mph - N/A   Clear
10:52 PM 89.1 °F 88.8 °F 60.1 °F 38% 29.88 in 10.0 mi SE 12.7 mph - N/A   Clear
11:52 PM 88.0 °F 87.9 °F 61.0 °F 40% 29.88 in 10.0 mi SE 13.8 mph - N/A   Clear